sat.trackr.live / text

‹ back to catalog

STARLINK-36652

NORAD 67839 · 2026-033U

PAYLOAD ACTIVE UNKNOWN

§ Identity

Operator
Country
US
Launch date
2026-02-16
Launch site
AFETR
Launch vehicle
Mass (kg)
RCS (m²)

Purposes: comms

External: N2YO · Heavens-Above · Gunter

§ Orbital elements

Epoch: 2026-05-25T03:06:48.083616Z

Period
94.27 min
Inclination
43.0001°
Eccentricity
0.0001922
Mean motion
15.27593833 rev/d
Perigee alt
481.7 km
Apogee alt
484.3 km
Semi-major
6,861.1 km
B*
5.1084e-4
RAAN
195.4347°
Arg perigee
268.0500°
Mean anomaly
92.0132°
Rev number
1,636

§ Raw data

STARLINK-366521 67839U 26033U   26145.12972319  .00013828  00000+0  51084-3 0  99912 67839  43.0001 195.4347 0001922 268.0500  92.0132 15.27593833 16360

JSON: /api/v1/satellites/67839 · /tle

For live sub-satellite position, see the globe view (requires WebGL).

§ Visibility from observer

Set your observer location to see the next 7 days of passes ≥ 10°. The values pass through the URL so the page stays shareable.

No JS? Fill the form by hand. The geolocation button needs JavaScript.